Location: Cabrera Baja
(40.4089°N, 4.3354°W)
Time: 03:25:31
(UTC+00:00)

Cosmos 1703 Rocket - Pass Details

Date: 14 July 2020
Orbit: 605 x 633 km, 82.5° (Epoch: 03 August)

Event Time Altitude Azimuth Distance (km) Brightness Sun altitude
Rises 02:09:08 0° 344° (NNW) 2,925 7.7 -23.3°
Reaches altitude 10° 02:11:28 10° 337° (NNW) 2,010 6.7 -23.1°
Enters shadow 02:15:14 39° 283° (WNW) 936 4.3 -22.7°
